Regional Weather Roundup
Issued by NWS Albany, NY

Home | Current Version | Previous Version | Text Only | Print | Product List | Glossary On
Versions: 1 2 3 4 5 6 7 8 9 10 11 12 13 14 15 16 17 18 19 20 21 22 23 24 25 26 27 28 29 30 31 32 33 34 35 36 37 38 39 40 41 42 43 44 45 46 47 48 49 50
000
ASUS41 KALY 300510
RWRALY

NEW YORK STATE HOURLY WEATHER ROUNDUP
NATIONAL WEATHER SERVICE ALBANY NY
100 AM EDT WED JUL 30 2014

NOTE: "FAIR" INDICATES FEW OR NO CLOUDS BELOW 12,000 FEET WITH NO
SIGNIFICANT WEATHER AND/OR NO OBSTRUCTIONS TO VISIBILITY.

NYZ032-033-038>043-046>054-057>066-NYZ062>081-300600-
EAST


CITY           SKY/WX    TMP DP  RH WIND       PRES   REMARKS
ALBANY         MOCLDY    63  52  67 CALM      29.97R
GLENS FALLS    CLOUDY    59  56  89 CALM      29.96S
POUGHKEEPSIE   CLOUDY    63  58  83 CALM      29.97R
NEWBURGH       CLOUDY    63  57  82 W3        29.99R
MONTGOMERY     CLOUDY    61  56  83 CALM      29.98S
WHITE PLAINS   CLEAR     62  54  74 NW3       29.97S
ISLIP          MOCLDY    67  54  63 CALM      29.97R
NEW YORK CITY  CLOUDY    69  52  54 W5        29.98R
CENTRAL PARK   PTCLDY    67  52  58 W3        30.01R
$$

NYZ005>009-017-018-044>046-055-056-300600-
CENTRAL


CITY           SKY/WX    TMP DP  RH WIND       PRES   REMARKS
FULTON         CLEAR     52  49  89 SE3       29.98R
SYRACUSE       PTCLDY    57  52  83 CALM      29.98S
ROME           CLEAR     52  50  93 CALM      30.01R
ELMIRA         CLEAR     51  51 100 CALM      30.01R FOG
BINGHAMTON     PTCLDY    56  51  84 SW3       30.01S
MONTICELLO     CLOUDY    55  54  94 CALM      30.02S
$$

NYZ026>034-041>043-300600-
NORTH


CITY           SKY/WX    TMP DP  RH WIND       PRES   REMARKS
WATERTOWN      CLEAR     56  49  77 SE3       29.96S
FORT DRUM      NOT AVBL
MASSENA        CLEAR     56  54  93 S5        29.95S
SARANAC LAKE   CLEAR     43  42  97 CALM      29.98S
PLATTSBURGH    CLEAR     53  51  93 CALM      29.96R
$$

NYZ001>004-010>016-019>021-300600-
WEST


CITY           SKY/WX    TMP DP  RH WIND       PRES   REMARKS
NIAGARA FALLS  CLOUDY    61  58  90 S6        29.96S
BUFFALO        TSTM      59  56  89 S8        29.98R
DUNKIRK        CLOUDY    60  51  72 S9        29.98S
JAMESTOWN      CLOUDY    54  50  87 S5        30.01S
WELLSVILLE     CLEAR     54  48  80 W6        30.04S
ROCHESTER      MOCLDY    58  53  84 SW7       29.98S
PENN YAN       CLEAR     57  55  93 SW5       30.00S
$$

             KEY
       WCI = WIND CHILL INDEX
       VSB = VISIBILITY
       HX  = HEAT INDEX
$$


USA.gov is the U.S. government's official web portal to all federal, state and local government web resources and services.